Flag for Sweden Weather past 2 weeks in Uppsala, Sweden

Now
37 °F

Passing clouds.


Feels Like: 30 °F
Forecast: 33 / 38 °F
Wind: 12 mph from South

Location: Stockholm / Arlanda

Current Time: Mar 2, 2015 at 2:38:52 AM

Latest Report: Mar 2, 2015 at 2:20 AM


Visibility: N/A

Pressure: 29.27 "Hg

Humidity: 93%

Dew point: 36 °F

Location of UppsalaLocation

Historic Weather in Uppsala — Graph

°F

Uppsala temperature yesterday

Maximum temperature yesterday: 41 °F (at 1:50 PM)
Minimum temperature yesterday: 32 °F (at 12:20 AM)
Average temperature yesterday: 36 °F

Past Weeks' High & Low Weather Summary

 TemperatureHumidityPressure
High45 °F (Feb 19, 12:50 PM)100% (Feb 18, 10:20 PM)30.66 "Hg (Feb 18, 10:20 PM)
Low27 °F (Feb 15, 7:20 PM)47% (Feb 15, 3:50 PM)29.12 "Hg (Feb 22, 2:20 AM)
Average36 °F84%29.83 "Hg
* Reported Feb 15 1:20 AM — Mar 2 1:20 AM, Uppsala, Weather by CustomWeather, © 2015

Note: Actual official high and low records may vary slightly from our data, if they occured in-between our weather recording intervals... More about our weather records

Advertising

Uppsala weather history for previous 24 hours

 ConditionsComfort  
Time TempWeatherWind HumidityBarometerVisibility
1:20 AM
Mon, Mar 2
37 °FPassing clouds.12 mph93%29.27 "HgN/A
12:50 AM37 °FPassing clouds.12 mph93%29.27 "HgN/A
12:20 AM36 °FPassing clouds.12 mph100%29.27 "HgN/A
11:50 PM
Sun, Mar 1
37 °FPassing clouds.14 mph93%29.27 "HgN/A
11:20 PM37 °FPassing clouds.13 mph93%29.27 "HgN/A
10:50 PM37 °FLight rain. Passing clouds.15 mph93%29.27 "HgN/A
10:20 PM37 °FLight rain. Passing clouds.15 mph93%29.27 "HgN/A
9:50 PM37 °FLight rain. Passing clouds.15 mph93%29.30 "HgN/A
9:20 PM36 °FLight rain. Low clouds.15 mph100%29.30 "HgN/A
8:20 PM36 °FPassing clouds.18 mph93%29.33 "HgN/A
7:50 PM36 °FLight rain. Fog.18 mph93%29.33 "Hg5 mi
7:20 PM36 °FPassing clouds.20 mph100%29.33 "Hg4 mi
6:50 PM37 °FLight rain. Passing clouds.20 mph87%29.33 "Hg4 mi
6:20 PM37 °FLight rain. Passing clouds.22 mph87%29.36 "Hg4 mi
5:50 PM39 °FLight rain. Passing clouds.24 mph75%29.36 "HgN/A
5:20 PM39 °FPassing clouds.23 mph75%29.36 "HgN/A
4:20 PM39 °FPartly sunny.22 mph70%29.39 "HgN/A
3:50 PM41 °FBroken clouds.22 mph61%29.39 "HgN/A
3:20 PM41 °FSunny.23 mph61%29.42 "Hg10 mi
2:50 PM41 °FSunny.25 mph61%29.42 "Hg10 mi
2:20 PM41 °FPassing clouds.24 mph61%29.45 "HgN/A
1:50 PM41 °FPassing clouds.24 mph66%29.45 "HgN/A
1:20 PM39 °FPartly sunny.23 mph70%29.47 "HgN/A
12:50 PM39 °FBroken clouds.22 mph70%29.47 "HgN/A
12:20 PM39 °FScattered clouds.23 mph70%29.50 "HgN/A
11:50 AM39 °FPartly sunny.23 mph70%29.53 "HgN/A
11:20 AM39 °FPartly sunny.23 mph70%29.53 "HgN/A
10:50 AM39 °FPartly sunny.24 mph70%29.56 "HgN/A
10:20 AM37 °FPartly sunny.23 mph75%29.56 "HgN/A
9:50 AM37 °FPartly sunny.22 mph75%29.59 "HgN/A
9:20 AM37 °FPartly sunny.21 mph81%29.59 "HgN/A
8:50 AM36 °FPartly sunny.18 mph81%29.59 "HgN/A
8:20 AM34 °FPartly sunny.18 mph93%29.62 "HgN/A
7:50 AM34 °FPartly sunny.18 mph93%29.62 "HgN/A
7:20 AM32 °FSunny.16 mph93%29.62 "Hg10 mi
6:50 AM32 °FSunny.13 mph93%29.62 "Hg10 mi
6:20 AM32 °FClear.13 mph93%29.65 "Hg10 mi
5:50 AM32 °FClear.14 mph93%29.65 "Hg10 mi
5:20 AM32 °FClear.13 mph93%29.65 "Hg10 mi
4:50 AM32 °FClear.14 mph93%29.68 "Hg10 mi
4:20 AM32 °FClear.14 mph93%29.68 "Hg10 mi
3:50 AM32 °FClear.12 mph93%29.68 "Hg10 mi
3:20 AM32 °FClear.12 mph93%29.68 "Hg10 mi
2:50 AM32 °FClear.12 mph87%29.71 "Hg10 mi
2:20 AM32 °FClear.12 mph87%29.71 "Hg10 mi
Weather by CustomWeather, © 2015

See weather overviewHow to use our weather pages